Location: ??
(34.9170°N, 135.5016°E)
Time: 00:55:45
(UTC+00:00)

RS-15 - Pass Details

Date: 28 April 2021
Orbit: 1888 x 2157 km, 64.8° (Epoch: 12 May)

Event Time Altitude Azimuth Distance (km) Brightness Sun altitude
Rises 10:04:34 0° 251° (WSW) 5,292 11.2 -5.4°
Reaches altitude 10° 10:08:29 10° 262° (W) 4,323 10.9 -6.2°
Maximum altitude 10:17:46 30° 320° (NW) 3,111 9.9 -7.9°
Drops below altitude 10° 10:27:29 10° 18° (NNE) 4,506 10.0 -9.7°
Sets 10:31:44 0° 29° (NNE) 5,551 10.4 -10.5°
